カタログに戻る

STARLINK-3526

運用中通信VLEO
NORAD 51720·PAYLOAD·🇺🇸 United States

打ち上げ Feb 21, 2022 から Cape Canaveral Space Force Station

Loading…

次のパス (今後24時間)

TLE

最新Source: CelesTrak SupGP

元期: Sep 15, 2026, 01:31 UTC

1 51720C 22016G   26258.06368056 -.00019805  00000+0 -63696-3 0  2588
2 51720  53.1589 185.2205 0001637  85.8436 339.5086 15.31706628    16

AllMySatでSTARLINK-3526をリアルタイム追跡

Download on the App Store